Location: Ethel Rock
(53.4667°N, 4.5667°W)
Time: 00:05:22
(UTC+00:00)

CENTAUR R/B - Pass Details

Date: 24 October 2020
Orbit: 749 x 1439 km, 63.5° (Epoch: 22 November)

Event Time Altitude Azimuth Distance (km) Brightness Sun altitude
Exits shadow 05:07:59 12° 216° (SW) 2,459 4.2 -17.6°
Maximum altitude 05:13:40 76° 132° (SE) 1,067 2.8 -16.8°
Drops below altitude 10° 05:21:00 10° 49° (NE) 3,107 5.9 -15.7°
Sets 05:23:59 0° 48° (NE) 4,176 6.6 -15.3°
